Macomb, IL

12:29 PM CST on February 20, 2018 (GMT -0600)
Macomb Municipal

Weather History for KMQB - October, 2011

Change the Weather History Date:

Monday, October 17, 2011

  Actual Average (KBRL) Record (KBRL)
Temperature  
Mean Temperature 44 °F -  
Max Temperature 53 °F 63 °F 89 °F (2016)
Min Temperature 35 °F 42 °F 25 °F (1943)
Degree Days  
Heating Degree Days 21    
Moisture  
Dew Point 35 °F    
Average Humidity 63    
Maximum Humidity 87    
Minimum Humidity 47    
Precipitation  
Precipitation 0.00 in - - ()
Sea Level Pressure  
Sea Level Pressure 29.98 in    
Wind  
Wind Speed 8 mph (West)    
Max Wind Speed 14 mph    
Max Gust Speed -    
Visibility 10 miles    
Events Rain    
Averages and records for this station are not official NWS values.
T = Trace of Precipitation, MM = Missing Value Source: NWS Daily Summary

Daily Weather History Graph

Daily Weather History Graph

Search for Another Location

Airport or City:

Trip Planner

Search our weather history database for the weather conditions in past years. The results will help you decide how hot, cold, wet, or windy it might be!

Date:

Astronomy

Oct. 17, 2011 Rise Set
Actual Time 7:15 AM CDT 6:19 PM CDT
Civil Twilight 6:47 AM CDT 6:47 PM CDT
Nautical Twilight 6:16 AM CDT 7:19 PM CDT
Astronomical Twilight 5:44 AM CDT 7:50 PM CDT
Moon 9:59 PM CDT (10/17) 12:22 PM CDT (10/17)
Length of Visible Light 11h 59m
Length of Day
11h 04m
Waning Gibbous, 74% of the Moon is Illuminated
Oct 17
Waning Gibbous
Oct 19
Last Quarter
Oct 26
New
Nov 2
First Quarter
Nov 10
Full

Hourly Weather History & Observations

Time (CDT) Temp. Windchill Dew Point Humidity Pressure Visibility Wind Dir Wind Speed Gust Speed Precip Events Conditions
12:15 AM 42.8 °F 38.0 °F 35.6 °F 76% 30.01 in 10.0 mi West 8.1 mph - N/A   Clear
12:35 AM 44.6 °F 40.7 °F 35.6 °F 71% 30.01 in 10.0 mi West 6.9 mph - N/A   Clear
12:55 AM 44.6 °F 40.7 °F 35.6 °F 71% 30.00 in 10.0 mi West 6.9 mph - N/A   Clear
1:15 AM 41.0 °F 37.1 °F 33.8 °F 76% 30.00 in 10.0 mi West 5.8 mph - N/A   Clear
1:35 AM 41.0 °F 36.4 °F 33.8 °F 76% 30.00 in 10.0 mi West 6.9 mph - N/A   Clear
1:55 AM 41.0 °F 36.4 °F 33.8 °F 76% 30.00 in 10.0 mi West 6.9 mph - N/A   Clear
2:15 AM 41.0 °F 35.8 °F 35.6 °F 81% 30.00 in 10.0 mi West 8.1 mph - N/A   Clear
2:35 AM 41.0 °F 35.8 °F 33.8 °F 76% 30.00 in 10.0 mi West 8.1 mph - N/A   Clear
2:55 AM 42.8 °F 38.0 °F 33.8 °F 70% 30.00 in 10.0 mi West 8.1 mph - N/A   Clear
3:15 AM 39.2 °F 32.5 °F 33.8 °F 81% 30.00 in 10.0 mi West 10.4 mph - N/A   Clear
3:55 AM 42.8 °F 36.6 °F 33.8 °F 70% 29.98 in 10.0 mi NW 11.5 mph - N/A   Clear
4:15 AM 42.8 °F 37.0 °F 32.0 °F 66% 29.99 in 10.0 mi NW 10.4 mph - N/A   Clear
4:35 AM 44.6 °F 40.7 °F 32.0 °F 61% 29.98 in 10.0 mi NW 6.9 mph - N/A   Clear
4:55 AM 44.6 °F 41.4 °F 32.0 °F 61% 29.98 in 10.0 mi NW 5.8 mph - N/A   Clear
5:15 AM 44.6 °F 40.7 °F 32.0 °F 61% 29.99 in 10.0 mi NW 6.9 mph - N/A   Clear
5:35 AM 42.8 °F 38.6 °F 32.0 °F 66% 29.99 in 10.0 mi NW 6.9 mph - N/A   Clear
5:55 AM 42.8 °F 41.1 °F 32.0 °F 66% 29.99 in 10.0 mi NNW 3.5 mph - N/A   Clear
6:15 AM 39.2 °F 34.2 °F 32.0 °F 75% 30.00 in 10.0 mi SW 6.9 mph - N/A   Clear
7:15 AM 35.6 °F 29.9 °F 32.0 °F 87% 30.00 in 10.0 mi WSW 6.9 mph - N/A   Clear
7:35 AM 37.4 °F 31.4 °F 32.0 °F 81% 30.01 in 10.0 mi WSW 8.1 mph - N/A   Clear
7:55 AM 41.0 °F 37.1 °F 32.0 °F 70% 30.01 in 10.0 mi West 5.8 mph - N/A   Clear
8:35 AM 44.6 °F 40.7 °F 33.8 °F 66% 30.03 in 10.0 mi WSW 6.9 mph - N/A   Clear
8:55 AM 46.4 °F 42.9 °F 33.8 °F 62% 30.02 in 10.0 mi WSW 6.9 mph - N/A   Clear
9:15 AM 48.2 °F - 33.8 °F 58% 30.02 in 10.0 mi West 8.1 mph - N/A   Clear
9:35 AM 50.0 °F - 33.8 °F 54% 30.02 in 10.0 mi WNW 8.1 mph - N/A   Clear
9:55 AM 50.0 °F - 33.8 °F 54% 30.03 in 10.0 mi WNW 9.2 mph - N/A   Clear
10:15 AM 51.8 °F - 33.8 °F 50% 30.03 in 10.0 mi WNW 8.1 mph - N/A   Clear
10:35 AM 51.8 °F - 33.8 °F 50% 30.03 in 10.0 mi West 6.9 mph - N/A   Clear
10:55 AM 53.6 °F - 33.8 °F 47% 30.03 in 10.0 mi West 6.9 mph - N/A   Clear
11:15 AM 53.6 °F - 33.8 °F 47% 30.02 in 10.0 mi West 5.8 mph - N/A   Scattered Clouds
11:35 AM 53.6 °F - 33.8 °F 47% 30.02 in 10.0 mi West 8.1 mph - N/A   Clear
11:55 AM 53.6 °F - 33.8 °F 47% 30.01 in 10.0 mi WNW 9.2 mph - N/A   Mostly Cloudy
12:15 PM 53.6 °F - 33.8 °F 47% 30.00 in 10.0 mi NW 9.2 mph - N/A Rain Light Rain
12:35 PM 53.6 °F - 33.8 °F 47% 29.99 in 10.0 mi NW 8.1 mph - N/A Rain Light Rain
12:55 PM 53.6 °F - 33.8 °F 47% 29.99 in 10.0 mi WNW 8.1 mph - N/A Rain Light Rain
1:15 PM 53.6 °F - 33.8 °F 47% 29.98 in 10.0 mi NW 11.5 mph - N/A   Clear
1:35 PM 53.6 °F - 33.8 °F 47% 29.97 in 10.0 mi NW 10.4 mph - N/A Rain Light Rain
1:55 PM 53.6 °F - 33.8 °F 47% 29.97 in 10.0 mi West 11.5 mph - N/A   Clear
2:15 PM 53.6 °F - 33.8 °F 47% 29.97 in 10.0 mi WNW 12.7 mph - N/A   Clear
2:35 PM 53.6 °F - 33.8 °F 47% 29.95 in 10.0 mi WNW 12.7 mph - N/A Rain Light Rain
2:55 PM 51.8 °F - 35.6 °F 54% 29.94 in 10.0 mi WNW 13.8 mph - N/A   Overcast
3:15 PM 51.8 °F - 35.6 °F 54% 29.94 in 10.0 mi WNW 8.1 mph - N/A   Overcast
3:35 PM 53.6 °F - 33.8 °F 47% 29.94 in 10.0 mi WNW 9.2 mph - N/A   Overcast
3:55 PM 53.6 °F - 35.6 °F 51% 29.94 in 10.0 mi West 8.1 mph - N/A   Overcast
4:15 PM 53.6 °F - 35.6 °F 51% 29.94 in 10.0 mi West 5.8 mph - N/A   Overcast
4:35 PM 51.8 °F - 35.6 °F 54% 29.95 in 10.0 mi West 4.6 mph - N/A Rain Light Rain
4:55 PM 51.8 °F - 35.6 °F 54% 29.95 in 10.0 mi WSW 5.8 mph - N/A   Overcast
5:15 PM 51.8 °F - 35.6 °F 54% 29.95 in 10.0 mi West 6.9 mph - N/A   Overcast
5:35 PM 51.8 °F - 35.6 °F 54% 29.95 in 10.0 mi WSW 5.8 mph - N/A   Overcast
5:55 PM 50.0 °F - 37.4 °F 62% 29.95 in 10.0 mi WSW 5.8 mph - N/A   Overcast
6:15 PM 50.0 °F - 37.4 °F 62% 29.95 in 10.0 mi West 6.9 mph - N/A Rain Light Rain
6:35 PM 50.0 °F - 37.4 °F 62% 29.95 in 10.0 mi West 6.9 mph - N/A   Overcast
6:55 PM 50.0 °F - 39.2 °F 66% 29.95 in 10.0 mi WSW 6.9 mph - N/A Rain Light Rain
7:15 PM 48.2 °F - 41.0 °F 76% 29.95 in 10.0 mi WSW 4.6 mph - N/A Rain Light Rain
7:35 PM 48.2 °F - 41.0 °F 76% 29.96 in 10.0 mi West 6.9 mph - N/A   Scattered Clouds
7:55 PM 48.2 °F - 41.0 °F 76% 29.96 in 10.0 mi WSW 8.1 mph - N/A   Overcast
8:15 PM 48.2 °F - 41.0 °F 76% 29.95 in 10.0 mi West 8.1 mph - N/A   Mostly Cloudy
8:35 PM 48.2 °F - 41.0 °F 76% 29.96 in 10.0 mi WSW 9.2 mph - N/A   Mostly Cloudy
8:55 PM 46.4 °F 42.9 °F 41.0 °F 81% 29.95 in 10.0 mi WSW 6.9 mph - N/A   Overcast
9:15 PM 46.4 °F 41.9 °F 41.0 °F 81% 29.95 in 10.0 mi WSW 9.2 mph - N/A   Scattered Clouds
9:35 PM 46.4 °F 41.9 °F 41.0 °F 81% 29.95 in 10.0 mi WSW 9.2 mph - N/A   Scattered Clouds
9:55 PM 46.4 °F 42.4 °F 41.0 °F 81% 29.95 in 10.0 mi WSW 8.1 mph - N/A   Clear
10:15 PM 46.4 °F 42.9 °F 41.0 °F 81% 29.95 in 10.0 mi WSW 6.9 mph - N/A   Mostly Cloudy
10:35 PM 46.4 °F 42.9 °F 41.0 °F 81% 29.94 in 10.0 mi WSW 6.9 mph - N/A   Mostly Cloudy
10:55 PM 44.6 °F 40.2 °F 41.0 °F 87% 29.95 in 10.0 mi WSW 8.1 mph - N/A   Clear
11:15 PM 44.6 °F 40.7 °F 41.0 °F 87% 29.95 in 10.0 mi WSW 6.9 mph - N/A   Clear
11:35 PM 44.6 °F 41.4 °F 41.0 °F 87% 29.94 in 10.0 mi WSW 5.8 mph - N/A   Clear
11:55 PM 42.8 °F 38.6 °F 41.0 °F 93% 29.94 in 10.0 mi WSW 6.9 mph - N/A   Scattered Clouds